Wind_Speed
7 5 3 6 3 3 6 4 11 14 13 12 9 8 11 14 12 10 9 8 7 7 7 8 9 12 12 12 14 14 15 17 18 16 14 13 11 10 8 7 6 5 4 4 4 4 5 4 4
4 4 5 4 6 5 2 6 15 17 11 8 6 10 10 11 11 10 10 8 7 7 8 8 10 11 11 12 14 14 14 15 15 14 13 11 9 7 8 8 7 6 5 5 5 4 4 4 5
2 2 4 4 6 6 5 16 17 12 11 10 5 8 12 14 12 8 8 9 7 6 7 8 10 10 10 12 13 13 13 13 12 10 10 9 9 9 9 8 6 4 4 5 5 6 7 8 6
2 1 2 3 4 6 5 17 10 8 11 9 6 9 14 14 10 8 8 8 6 6 7 8 10 10 10 12 13 13 12 10 9 9 10 11 11 11 10 9 6 5 6 6 8 10 11 10 9
3 1 3 4 6 8 6 12 10 11 8 10 10 12 14 14 10 7 6 6 6 7 7 8 10 9 10 11 12 13 12 10 9 10 12 13 13 14 13 11 13 12 13 13 15 16 14 14 13
4 3 3 5 9 8 7 13 11 11 10 8 9 10 10 13 10 7 4 4 5 7 8 9 10 9 10 11 12 12 11 10 11 12 15 13 14 15 16 18 18 18 18 19 19 17 15 15 14
7 7 8 6 7 10 8 14 11 10 10 8 7 8 11 12 10 6 4 3 5 7 8 9 9 9 10 11 13 13 12 12 13 15 16 13 14 16 17 19 19 19 21 20 18 16 13 13 13
12 11 9 3 10 13 10 17 13 11 8 7 8 8 10 12 11 6 4 4 6 8 8 8 9 10 10 12 14 13 13 15 15 16 15 14 18 19 20 20 19 17 21 19 17 16 14 14 14
10 11 9 10 10 13 10 13 13 11 9 8 7 8 12 14 13 9 7 6 8 9 9 8 9 9 11 14 15 15 16 16 16 14 13 15 16 15 17 17 17 16 17 17 17 17 15 13 11
12 13 8 10 10 7 13 14 13 12 10 8 9 11 13 16 15 14 11 10 10 11 10 9 10 10 14 16 16 17 17 15 15 14 13 14 15 13 13 13 12 11 13 13 14 13 16 9 10
14 14 16 14 13 15 13 16 13 12 11 9 10 12 16 19 16 16 13 12 13 12 11 10 12 13 16 17 18 18 16 16 16 15 14 14 13 11 10 9 10 9 8 9 10 11 10 9 7
20 19 13 12 6 8 10 11 11 9 9 8 10 12 17 18 17 15 13 12 13 13 12 13 14 16 18 18 18 17 16 16 16 15 14 13 12 11 8 8 7 8 5 7 6 8 8 9 8
20 20 19 16 9 14 12 14 12 11 11 9 11 13 16 18 18 17 15 14 14 13 14 15 15 19 20 19 18 17 17 14 12 12 11 11 9 9 7 6 6 8 6 6 5 7 7 9 8
24 22 21 20 15 12 9 10 10 9 10 11 13 13 14 17 19 18 16 15 15 14 15 16 17 21 21 19 18 18 16 13 12 12 10 9 7 7 7 7 6 9 1 3 4 6 7 8 10
21 22 21 21 19 17 14 14 14 12 8 10 13 13 14 17 19 19 18 16 16 14 16 16 20 24 22 19 17 17 14 11 10 11 10 10 10 8 7 6 6 6 6 6 7 8 9 9 10
20 19 20 19 22 20 18 10 16 11 6 9 10 12 14 17 21 20 18 16 15 15 17 17 22 24 21 18 18 14 12 12 11 12 13 11 8 6 6 9 11 10 10 7 8 9 8 9 10
25 18 18 20 21 22 22 23 28 15 14 10 9 12 15 18 21 19 17 16 15 16 17 18 23 24 21 17 15 15 15 13 14 13 11 8 7 7 9 11 11 13 10 8 7 6 8 7 11
22 23 21 23 23 23 23 26 22 16 16 12 12 12 14 16 20 20 18 16 15 15 18 18 24 24 21 17 16 15 15 16 13 12 8 8 9 10 11 13 14 14 13 11 9 8 8 9 11
26 24 28 20 28 24 25 27 24 11 16 14 11 12 15 19 21 23 21 18 17 16 18 18 22 24 20 19 15 15 15 13 13 13 10 9 9 10 13 14 16 15 15 16 13 10 10 10 11
29 27 29 27 24 29 29 29 24 24 24 20 17 15 18 20 20 22 22 18 20 18 19 19 23 25 20 20 18 16 15 15 14 12 12 11 11 10 11 14 15 15 15 15 14 12 12 11 11
32 30 29 32 27 29 28 32 28 28 30 23 20 17 18 17 18 21 22 21 23 19 20 21 24 26 24 19 18 17 16 15 14 12 12 12 12 11 12 13 12 14 13 13 12 11 11 9 9
33 33 34 37 36 30 35 35 38 37 32 30 23 19 17 16 17 21 22 23 25 23 23 24 26 27 26 21 19 17 17 16 15 13 12 13 13 14 13 12 12 12 12 12 11 11 11 10 8
39 39 38 39 41 45 36 38 24 26 24 33 29 25 22 17 14 19 18 21 25 30 26 27 28 28 26 23 21 20 18 17 15 15 14 13 14 15 14 12 10 9 9 9 10 9 9 9 9
46 45 45 45 45 51 49 36 40 37 39 31 33 31 26 20 15 19 20 19 22 29 29 28 29 29 27 25 23 21 20 17 17 16 16 14 14 13 12 11 8 7 6 6 6 7 7 7 9
52 50 48 49 50 49 46 52 40 32 37 34 33 33 30 26 22 21 18 18 16 24 29 29 29 30 29 26 25 23 20 19 19 17 16 15 14 14 12 10 9 7 6 4 4 5 6 7 8
57 55 52 48 43 46 47 54 53 41 25 37 39 36 33 33 29 26 22 22 23 22 26 32 30 31 30 29 27 26 23 20 21 19 18 17 16 15 14 13 11 8 7 5 3 4 5 7 9
53 55 55 37 32 39 36 50 49 46 48 41 41 37 38 37 37 30 26 24 27 25 25 31 34 34 33 31 31 29 26 22 20 19 20 19 18 17 16 14 11 9 7 6 4 4 3 6 7
55 44 49 55 44 41 35 35 39 48 51 55 50 36 43 29 41 35 30 29 28 25 27 30 35 36 36 35 34 33 30 26 24 22 21 20 20 20 18 16 13 10 7 6 4 2 1 2 5
50 54 50 38 48 43 37 33 32 33 43 53 53 54 45 43 40 36 35 33 31 28 28 30 34 38 38 36 35 34 31 29 28 25 22 22 22 22 21 18 15 12 10 9 7 6 4 3 2
46 39 48 44 43 47 43 32 21 31 33 43 46 48 46 45 36 37 39 36 33 30 27 29 32 36 39 37 37 35 35 33 31 27 24 23 22 24 23 20 17 15 14 13 11 10 9 7 6
Wind_Direction
121 103 127 142 186 141 158 207 186 163 153 159 142 148 155 151 142 133 122 114 92 99 102 95 98 107 106 107 109 109 103 103 101 105 108 105 100 91 86 79 70 72 89 93 91 85 82 86 82
106 108 123 120 140 142 175 179 178 171 178 171 169 184 167 160 148 141 118 104 101 105 111 102 108 111 111 113 113 113 108 103 103 103 100 97 84 72 68 66 61 66 73 82 83 93 119 113 97
130 105 123 116 135 178 188 161 171 172 187 189 187 178 173 161 158 143 128 111 100 105 106 111 119 119 117 113 112 114 108 103 106 105 97 89 80 73 68 63 65 62 81 91 107 123 109 112 131
175 113 158 195 195 222 213 157 159 179 182 179 161 160 161 159 153 153 133 115 108 112 113 117 126 121 118 110 115 116 110 112 107 100 93 90 89 82 78 71 74 86 95 113 123 115 105 93 93
211 202 253 242 231 246 234 187 161 164 173 175 148 154 159 166 168 157 142 123 120 127 124 126 129 125 116 111 116 117 114 117 115 104 97 97 96 90 79 76 76 87 102 109 110 105 103 95 89
200 189 253 260 213 238 193 168 170 160 177 171 161 155 171 171 173 166 150 131 127 137 136 133 136 129 116 114 116 118 115 118 115 109 102 100 98 93 85 83 87 92 101 105 101 98 94 92 90
180 186 162 80 177 200 194 182 174 168 175 187 178 174 181 181 179 172 161 162 155 144 145 136 139 131 119 121 123 126 128 126 122 113 107 106 99 93 93 90 88 89 90 88 86 84 84 87 88
186 189 170 128 176 166 196 186 191 186 184 209 197 194 190 185 183 174 176 180 173 154 144 136 138 131 128 132 133 136 137 132 126 119 114 111 101 96 92 91 87 81 82 85 85 82 78 80 81
198 188 171 182 192 203 215 199 194 197 195 218 225 197 193 187 188 182 185 194 174 165 145 139 141 137 141 141 142 143 140 135 128 121 119 117 108 98 93 90 89 83 85 85 80 77 68 72 74
201 197 193 208 225 254 228 211 217 199 218 217 222 208 195 191 202 195 195 193 180 169 148 148 145 147 150 149 148 148 143 136 131 120 121 121 115 108 99 95 88 82 82 87 85 75 102 61 58
199 197 198 223 250 225 222 238 247 238 225 216 215 215 203 209 210 212 203 196 182 168 153 158 153 157 155 153 149 146 143 139 132 123 125 125 123 118 108 94 84 73 72 77 83 94 100 73 82
199 205 209 246 228 226 228 240 229 223 201 222 218 215 217 222 216 214 205 192 187 169 159 166 158 160 155 157 149 147 143 137 133 123 131 127 126 124 110 95 83 81 74 76 78 81 86 93 74
209 211 217 225 234 223 199 231 219 215 232 237 224 222 226 223 216 212 204 196 189 172 166 170 163 160 159 159 150 149 145 139 142 138 133 129 130 116 108 96 88 94 88 81 77 76 84 95 98
213 210 218 225 232 225 226 227 227 234 236 247 235 226 220 222 212 213 205 198 195 177 173 172 167 160 162 161 157 155 151 146 137 133 130 130 123 111 115 105 93 93 14 97 105 116 113 113 111
230 221 219 223 222 225 212 216 233 251 244 237 236 225 215 219 215 212 203 201 197 187 180 175 170 164 164 163 163 159 161 154 143 135 135 129 124 115 114 118 96 91 88 94 107 116 119 110 114
235 234 232 229 227 224 225 248 240 219 226 220 226 225 209 212 212 214 209 211 206 195 186 181 175 169 168 165 163 164 156 154 144 136 132 125 119 120 121 116 107 99 86 94 105 115 111 112 115
228 230 232 233 229 228 231 212 204 226 235 239 232 229 221 218 218 211 220 219 213 199 190 186 179 176 171 168 165 173 165 155 142 139 139 129 137 136 124 114 105 97 98 97 108 112 114 112 119
230 227 230 233 236 227 227 236 233 208 228 226 228 240 235 226 218 211 213 221 219 205 195 190 185 181 176 173 164 171 164 159 146 141 134 126 130 131 123 119 113 108 104 101 99 118 120 115 122
215 220 224 236 230 238 227 226 241 207 232 225 223 242 236 223 222 216 207 219 215 207 199 193 189 187 184 181 176 175 180 171 146 137 126 128 134 135 127 127 120 113 106 95 92 107 117 118 118
228 222 219 217 233 228 230 222 227 254 237 222 226 237 231 227 226 226 219 219 213 207 199 196 191 189 187 186 184 175 173 168 153 145 139 142 147 145 131 123 117 119 113 111 110 110 101 110 112
229 225 219 225 220 232 225 228 224 218 227 231 227 234 235 240 232 231 226 218 215 211 201 197 194 194 197 194 190 182 176 171 164 158 149 150 156 152 139 130 125 116 117 117 123 121 106 102 93
227 226 225 223 219 233 228 225 226 224 222 240 236 226 224 241 254 242 226 216 210 213 207 199 197 197 201 200 193 190 189 181 172 167 164 157 156 156 148 139 132 128 124 123 123 126 128 127 114
224 221 224 227 225 224 220 229 245 235 227 239 233 225 225 233 247 247 235 225 219 213 209 204 202 200 202 202 196 197 194 189 179 178 172 164 164 161 158 150 141 142 136 129 127 129 127 134 138
225 223 224 225 228 231 226 223 219 224 225 242 232 228 227 229 233 243 241 232 227 220 217 209 205 204 201 203 201 202 198 192 188 187 180 177 172 174 172 164 166 156 143 143 139 139 142 142 140
224 224 224 225 227 232 233 231 222 230 242 199 244 233 227 229 232 240 245 233 246 234 224 220 212 210 205 204 203 205 206 194 197 194 188 184 178 177 180 177 181 189 190 180 178 160 159 154 153
227 223 226 228 228 236 236 237 231 207 231 231 205 241 238 234 235 235 240 244 255 248 228 222 218 217 212 206 206 206 206 203 202 197 196 194 188 184 187 186 187 190 188 175 170 153 153 158 166
226 228 226 224 229 235 236 242 239 230 215 227 210 227 213 232 243 237 242 247 253 251 237 223 218 218 216 211 209 210 208 204 210 209 202 199 195 194 198 197 198 198 201 193 172 150 138 150 159
219 220 226 222 222 227 231 227 242 235 231 223 227 211 230 215 241 236 236 245 252 250 240 228 220 219 217 214 213 212 212 207 207 212 211 203 199 201 203 204 208 211 213 209 202 179 175 176 160
235 227 215 218 230 225 227 227 226 249 244 237 230 231 231 234 240 231 235 241 244 244 239 235 223 221 221 219 217 217 216 212 210 212 213 211 206 204 206 207 209 214 219 221 236 249 249 256 235
231 226 227 220 218 227 224 222 217 236 240 241 230 230 226 226 228 231 234 237 240 246 244 241 235 225 221 221 221 221 222 217 216 215 215 216 215 211 212 209 212 219 226 229 244 260 267 267 252
Height
5890 5889 5891 5893 5895 5893 5892 5892 5893 5893 5895 5895 5895 5895 5896 5896 5896 5899 5897 5896 5897 5897 5896 5896 5898 5899 5899 5899 5899 5899 5900 5900 5900 5900 5901 5902 5902 5902 5902 5902 5902 5903 5903 5902 5901 5901 5901 5902 5902
5890 5891 5892 5893 5894 5893 5892 5891 5892 5894 5895 5896 5896 5896 5897 5898 5898 5898 5898 5898 5898 5898 5897 5898 5899 5900 5901 5901 5901 5901 5901 5902 5902 5902 5903 5904 5904 5903 5903 5903 5902 5902 5902 5902 5902 5902 5902 5903 5903
5891 5892 5893 5894 5894 5889 5893 5893 5893 5895 5896 5896 5897 5898 5898 5899 5899 5899 5898 5899 5899 5899 5899 5900 5901 5902 5903 5903 5903 5903 5903 5903 5904 5904 5905 5905 5905 5905 5905 5904 5904 5903 5903 5903 5903 5903 5904 5904 5905
5891 5892 5893 5894 5894 5895 5893 5892 5894 5896 5896 5897 5897 5898 5900 5901 5901 5900 5899 5899 5900 5900 5901 5902 5903 5904 5904 5903 5904 5905 5905 5905 5906 5907 5908 5908 5908 5908 5907 5906 5905 5904 5903 5904 5904 5905 5906 5907 5907
5891 5891 5892 5893 5894 5894 5894 5893 5893 5896 5897 5899 5898 5899 5901 5901 5901 5901 5901 5900 5901 5901 5902 5903 5904 5905 5906 5905 5906 5907 5908 5908 5909 5909 5911 5911 5910 5910 5909 5908 5907 5906 5906 5906 5907 5908 5910 5910 5910
5890 5892 5893 5893 5894 5894 5894 5895 5895 5896 5898 5899 5900 5900 5902 5902 5902 5902 5902 5902 5902 5902 5903 5904 5906 5907 5907 5906 5907 5909 5910 5910 5911 5913 5914 5914 5913 5913 5913 5912 5911 5910 5909 5910 5911 5913 5914 5913 5913
5890 5892 5893 5894 5894 5896 5896 5896 5897 5898 5898 5899 5900 5900 5902 5903 5902 5903 5903 5903 5903 5904 5904 5906 5907 5908 5908 5909 5910 5911 5912 5913 5915 5917 5917 5917 5917 5916 5916 5916 5915 5914 5914 5915 5915 5916 5917 5917 5916
5890 5892 5893 5892 5894 5894 5896 5896 5897 5898 5898 5899 5900 5901 5903 5903 5904 5904 5904 5904 5904 5904 5905 5907 5908 5909 5910 5911 5912 5914 5915 5917 5918 5920 5919 5920 5920 5920 5920 5919 5918 5919 5920 5920 5919 5920 5920 5920 5920
5889 5892 5892 5894 5895 5890 5895 5896 5896 5897 5899 5900 5900 5901 5902 5903 5904 5904 5904 5905 5905 5905 5906 5908 5909 5910 5912 5913 5914 5917 5918 5920 5922 5922 5922 5923 5923 5922 5923 5924 5924 5923 5923 5924 5923 5924 5924 5924 5923
5888 5890 5894 5893 5894 5890 5896 5897 5897 5899 5899 5900 5900 5901 5902 5903 5904 5904 5905 5905 5906 5906 5907 5910 5911 5913 5914 5916 5917 5919 5920 5922 5923 5924 5925 5926 5925 5925 5926 5927 5928 5927 5927 5927 5928 5923 5901 5928 5927
5888 5889 5890 5892 5892 5895 5896 5897 5896 5897 5899 5899 5899 5902 5903 5903 5904 5905 5906 5906 5906 5907 5909 5911 5912 5914 5916 5918 5920 5921 5923 5924 5926 5926 5927 5928 5928 5928 5929 5929 5930 5930 5930 5930 5930 5931 5930 5929 5930
5885 5887 5889 5890 5891 5893 5894 5895 5896 5897 5895 5899 5899 5901 5902 5903 5904 5906 5907 5907 5908 5908 5910 5912 5914 5916 5918 5920 5922 5923 5925 5926 5927 5928 5929 5930 5931 5931 5931 5932 5932 5932 5933 5931 5932 5933 5932 5932 5933
5883 5886 5887 5889 5890 5892 5890 5894 5896 5896 5897 5897 5898 5899 5901 5903 5904 5906 5907 5908 5908 5909 5911 5913 5914 5917 5919 5921 5923 5925 5927 5928 5929 5930 5932 5932 5932 5932 5932 5933 5934 5934 5934 5934 5934 5934 5934 5934 5933
5880 5884 5885 5888 5889 5891 5893 5893 5894 5895 5895 5896 5897 5898 5900 5902 5904 5906 5907 5908 5909 5910 5912 5914 5916 5918 5920 5923 5925 5927 5929 5929 5930 5932 5933 5933 5934 5934 5933 5934 5935 5935 5935 5937 5936 5936 5936 5935 5935
5879 5882 5883 5885 5887 5889 5891 5893 5892 5895 5893 5894 5896 5897 5899 5901 5904 5905 5906 5908 5909 5911 5913 5914 5916 5919 5922 5924 5926 5928 5930 5931 5932 5933 5934 5935 5935 5935 5935 5935 5934 5936 5936 5937 5936 5937 5938 5937 5937
5875 5880 5882 5883 5885 5887 5889 5890 5889 5891 5891 5893 5894 5896 5898 5900 5903 5905 5907 5908 5910 5912 5914 5915 5917 5920 5923 5925 5928 5930 5931 5932 5934 5934 5935 5936 5936 5936 5936 5936 5936 5937 5937 5938 5937 5939 5940 5939 5939
5872 5877 5879 5881 5883 5884 5886 5888 5883 5888 5891 5891 5892 5895 5897 5899 5902 5905 5907 5908 5909 5912 5914 5916 5918 5921 5924 5926 5928 5931 5932 5934 5935 5936 5937 5937 5938 5937 5938 5938 5939 5937 5939 5939 5939 5940 5941 5941 5941
5870 5873 5876 5877 5880 5881 5882 5880 5876 5883 5889 5889 5891 5893 5896 5899 5901 5903 5906 5908 5909 5912 5914 5916 5919 5922 5924 5927 5929 5932 5933 5935 5936 5938 5939 5939 5939 5939 5940 5940 5940 5941 5941 5942 5942 5942 5943 5943 5944
5862 5868 5872 5877 5875 5877 5879 5879 5859 5876 5885 5888 5890 5892 5895 5898 5899 5901 5904 5906 5909 5911 5914 5917 5920 5923 5925 5928 5930 5932 5934 5936 5936 5939 5940 5941 5942 5942 5942 5944 5942 5944 5944 5944 5944 5945 5945 5945 5946
5856 5861 5866 5872 5873 5873 5875 5877 5878 5881 5884 5886 5888 5891 5893 5894 5897 5900 5902 5905 5908 5910 5913 5916 5920 5923 5926 5928 5929 5932 5935 5937 5938 5940 5942 5943 5943 5943 5944 5945 5946 5946 5946 5947 5948 5948 5947 5947 5948
5851 5856 5861 5864 5868 5869 5872 5873 5877 5859 5877 5883 5886 5889 5892 5895 5897 5899 5901 5903 5907 5910 5912 5915 5919 5922 5926 5928 5931 5933 5935 5937 5939 5941 5943 5944 5944 5945 5946 5947 5949 5949 5950 5950 5950 5950 5949 5950 5950
5844 5850 5853 5856 5860 5864 5865 5868 5867 5869 5871 5880 5883 5886 5890 5893 5895 5896 5898 5901 5904 5908 5910 5913 5917 5921 5925 5928 5931 5933 5935 5937 5939 5942 5943 5944 5946 5947 5948 5949 5950 5951 5952 5952 5952 5952 5951 5951 5952
5837 5840 5845 5849 5852 5855 5859 5863 5866 5866 5866 5875 5880 5883 5887 5890 5893 5895 5897 5900 5902 5904 5908 5912 5915 5919 5923 5927 5930 5933 5935 5938 5940 5942 5944 5945 5947 5948 5949 5951 5953 5953 5954 5954 5954 5954 5953 5954 5954
5827 5831 5835 5840 5844 5841 5853 5859 5863 5862 5871 5873 5877 5879 5884 5887 5890 5892 5894 5897 5899 5902 5906 5910 5914 5917 5921 5925 5929 5932 5934 5938 5940 5942 5944 5946 5948 5950 5952 5953 5953 5954 5955 5956 5956 5956 5955 5956 5956
5815 5822 5827 5829 5831 5839 5851 5851 5859 5869 5869 5864 5873 5877 5881 5884 5887 5889 5891 5895 5897 5900 5904 5909 5913 5916 5920 5924 5927 5931 5934 5937 5939 5941 5944 5947 5949 5950 5952 5953 5954 5955 5956 5957 5957 5957 5957 5957 5957
5803 5812 5816 5820 5828 5840 5844 5838 5847 5861 5865 5867 5866 5871 5877 5880 5883 5885 5888 5892 5894 5897 5900 5905 5910 5914 5918 5921 5925 5928 5932 5935 5938 5941 5944 5946 5949 5950 5952 5953 5955 5956 5957 5958 5958 5958 5958 5958 5958
5795 5793 5814 5817 5827 5829 5837 5840 5845 5850 5857 5856 5860 5864 5866 5871 5878 5882 5885 5888 5890 5893 5896 5900 5905 5909 5914 5918 5922 5925 5929 5933 5937 5940 5942 5945 5948 5950 5951 5953 5954 5956 5958 5959 5959 5959 5959 5959 5958
5774 5792 5796 5799 5808 5814 5827 5834 5835 5839 5845 5853 5855 5861 5864 5858 5873 5877 5880 5884 5887 5889 5891 5894 5900 5905 5910 5913 5918 5922 5926 5930 5933 5937 5940 5943 5946 5949 5950 5952 5953 5955 5957 5958 5959 5959 5960 5960 5959
5767 5774 5778 5791 5798 5805 5816 5825 5837 5834 5835 5842 5851 5856 5864 5867 5868 5872 5875 5880 5882 5884 5887 5890 5894 5899 5905 5911 5915 5919 5923 5927 5930 5934 5938 5941 5944 5947 5948 5950 5951 5954 5956 5957 5958 5958 5959 5960 5959
5752 5760 5768 5776 5786 5794 5806 5819 5828 5830 5830 5830 5841 5847 5855 5862 5867 5868 5871 5875 5878 5881 5884 5887 5890 5894 5900 5906 5911 5916 5919 5923 5927 5931 5935 5938 5942 5944 5946 5947 5949 5951 5954 5955 5956 5957 5958 5958 5959